Location: La Fredeussais
(48.1780°N, 1.3980°W)
Time: 17:45:08
(UTC+00:00)

BREEZE-M R/B - Pass Details

Date: 09 May 2021
Orbit: 311 x 4501 km, 49.7° (Epoch: 21 June)

Event Time Altitude Azimuth Distance (km) Brightness Sun altitude
Rises 21:12:07 0° 252° (WSW) 2,203 6.2 -14.1°
Reaches altitude 10° 21:14:09 10° 252° (WSW) 1,237 4.9 -14.3°
Maximum altitude 21:16:37 85° 164° (SSE) 319 1.5 -14.6°
Enters shadow 21:18:17 19° 76° (ENE) 872 3.6 -14.8°
